Wind_Speed
13 14 21 25 28 25 23 17 16 35 33 33 36 36 33 34 38 33 40 39 36 45 44 55 56 57 59 62 59 58 57 57 58 57 56 57 59 59 60 60 65 63 62 64 66 67 68 66 65
14 15 23 27 28 21 21 25 19 26 28 33 34 37 34 32 34 37 35 28 36 34 44 45 51 59 53 56 61 62 62 60 63 65 65 68 68 70 70 70 70 71 70 71 72 75 75 73 70
15 16 22 26 29 29 24 22 23 21 23 27 29 31 33 34 36 40 43 46 52 51 49 50 51 57 58 59 65 69 67 66 67 66 68 74 76 77 77 76 76 76 76 77 77 77 79 78 77
17 18 24 27 28 22 17 21 26 21 28 30 26 24 28 32 39 40 42 48 51 54 57 56 57 61 69 69 66 67 68 68 68 71 74 74 74 76 78 80 81 83 84 84 85 86 84 83 83
12 17 19 24 20 20 19 22 26 31 33 34 35 36 37 36 44 50 52 52 55 57 60 64 69 72 73 72 72 74 72 72 75 77 80 83 84 83 83 83 85 86 86 86 87 88 88 89 90
13 16 17 12 15 19 23 31 24 26 29 37 41 42 43 44 49 48 52 55 59 62 64 66 68 68 69 71 73 75 78 79 79 80 81 84 84 85 89 89 89 90 91 90 89 88 88 88 91
16 21 22 21 23 18 19 22 25 29 30 29 31 36 35 38 42 46 48 48 53 59 63 65 66 66 68 69 71 74 77 80 83 85 86 87 91 91 89 91 93 94 93 93 93 95 97 94 93
13 30 23 34 28 19 21 29 30 30 34 27 28 29 30 32 34 42 46 49 53 56 59 64 66 67 69 72 74 75 75 77 79 81 82 83 83 83 86 86 86 87 89 90 90 90 94 95 92
13 22 28 25 32 24 28 29 28 30 29 31 29 28 28 32 34 34 39 45 52 57 61 63 66 69 71 73 74 76 76 79 81 81 83 83 84 86 87 88 89 90 91 92 93 92 92 92 92
11 17 20 21 23 28 34 30 30 27 32 32 32 31 37 40 39 35 37 42 51 57 59 63 67 70 73 75 78 79 80 82 83 85 89 90 90 91 92 93 94 94 94 96 96 97 99 98 98
12 19 27 19 18 22 26 31 37 36 37 32 36 39 41 46 45 35 36 40 41 46 55 61 64 68 70 71 72 73 75 78 78 82 85 87 88 89 90 92 93 95 95 97 98 100 100 100 99
16 22 21 19 25 29 31 36 36 37 37 34 34 38 43 43 41 48 46 49 47 50 52 55 56 61 66 69 71 72 75 76 77 80 81 83 84 87 88 88 89 91 93 96 97 98 99 99 99
14 25 16 18 31 26 30 27 35 40 36 31 37 39 39 47 57 54 55 51 48 47 48 52 55 58 62 65 68 69 69 70 74 79 82 85 89 91 94 97 97 97 98 100 102 102 102 102 102
19 25 27 28 30 36 36 36 39 43 38 42 39 50 41 54 51 52 54 59 60 64 59 60 68 65 60 57 60 61 64 64 72 78 78 78 82 87 93 99 102 102 103 105 106 107 107 108 108
27 25 28 29 35 37 39 39 47 50 39 41 44 45 54 64 55 55 54 58 61 61 60 65 68 68 61 63 61 67 72 79 79 76 79 84 88 94 96 100 104 105 105 105 107 109 110 111 112
27 29 34 40 46 44 46 43 45 48 50 38 45 46 49 52 48 57 61 65 66 63 61 64 63 64 66 67 75 81 84 84 82 77 84 96 93 96 101 101 103 107 110 111 111 111 112 113 113
27 33 36 39 42 43 41 40 42 44 42 38 42 46 45 56 55 57 61 63 64 67 67 69 72 76 77 81 88 85 85 84 91 96 96 98 103 101 94 94 98 102 106 109 110 112 113 115 115
29 32 32 35 26 23 23 32 37 39 46 45 44 49 57 63 71 69 71 70 68 71 68 67 70 75 78 80 87 87 86 93 98 102 106 109 100 93 91 91 94 96 98 99 101 104 106 108 110
28 30 22 19 21 24 30 33 36 43 39 36 43 66 55 42 62 74 74 68 64 58 65 66 72 80 78 75 84 85 97 101 106 111 107 99 91 87 86 86 87 88 90 91 91 92 95 96 96
29 29 25 31 25 36 47 52 52 50 48 48 50 41 40 59 71 70 67 51 54 58 67 72 75 78 83 86 94 99 102 108 113 109 100 89 77 72 71 70 70 71 71 72 73 74 76 78 79
24 28 35 40 43 45 50 55 59 57 51 50 48 52 60 69 72 64 63 55 61 69 75 79 87 94 96 101 104 107 111 114 107 95 80 68 64 61 60 60 61 62 62 62 63 63 63 63 64
29 31 40 45 50 50 52 54 54 53 51 48 55 60 55 66 63 66 79 80 81 85 92 95 100 101 105 106 108 110 113 103 85 72 60 55 53 54 56 57 58 59 59 60 61 59 57 57 58
34 39 40 45 50 52 50 48 46 45 43 45 50 57 64 65 71 76 79 86 86 89 92 93 96 99 102 103 105 103 81 77 62 53 49 47 49 52 53 54 54 53 52 49 48 46 45 43 44
34 39 44 48 51 53 50 45 42 39 37 41 49 52 58 66 73 79 82 77 78 83 89 95 99 97 89 84 75 67 63 52 44 41 42 45 45 46 45 46 43 41 39 37 36 35 34 32 31
33 39 47 53 54 54 54 48 45 39 33 35 41 44 51 59 62 65 71 74 76 70 63 65 68 67 62 58 57 50 43 38 35 37 39 40 41 40 40 36 31 29 28 27 23 19 20 18 18
38 43 46 48 50 52 54 51 46 44 42 39 38 39 42 45 46 49 50 52 53 57 58 60 57 55 51 47 41 35 30 29 31 33 34 33 37 37 33 27 22 20 18 15 15 12 9 6 4
41 44 47 48 51 54 55 57 48 44 41 39 40 40 42 45 46 46 48 51 53 55 54 52 48 46 42 37 31 25 23 25 26 26 26 30 33 33 28 22 17 16 13 12 12 10 9 6 5
42 46 48 52 54 57 58 59 54 48 46 44 41 42 44 45 45 48 52 52 51 52 53 52 48 43 37 30 22 17 16 15 20 24 24 26 29 30 26 18 15 14 13 11 11 14 16 16 17
46 48 51 53 57 59 61 61 59 55 53 50 48 48 48 49 49 47 52 52 51 51 51 48 45 40 32 23 15 12 8 14 19 24 24 23 24 26 27 24 18 17 17 15 15 20 24 27 27
47 50 53 54 58 62 64 66 63 58 56 56 55 51 51 50 51 50 54 56 54 52 51 47 42 37 27 16 11 7 8 14 18 18 22 19 20 23 26 30 31 25 23 24 26 27 28 31 35
Wind_Direction
249 215 195 191 186 198 190 221 241 227 224 230 248 249 247 249 247 255 255 259 266 262 259 258 261 259 257 260 259 260 260 261 259 258 256 255 255 257 256 255 260 261 259 262 263 261 261 262 262
236 214 203 194 196 203 204 220 238 237 241 246 253 255 258 262 254 255 252 247 256 256 254 255 260 263 259 258 262 264 265 265 261 260 260 262 263 264 266 264 260 260 262 265 264 264 262 264 263
227 215 208 203 209 210 224 231 250 250 258 271 266 259 262 261 258 253 255 255 255 256 258 254 243 253 259 265 267 264 262 263 264 265 265 263 263 264 264 263 264 265 264 267 266 266 264 261 262
215 213 202 207 211 219 254 249 260 261 259 254 256 264 268 270 267 263 257 257 259 259 255 247 250 255 264 268 265 265 263 263 263 264 265 267 267 264 264 265 266 266 267 268 269 269 266 265 265
206 209 206 203 212 249 272 274 257 250 254 260 267 271 273 270 272 269 264 261 259 258 256 255 256 259 263 263 263 262 263 261 262 263 265 265 266 264 266 267 266 265 264 264 265 266 266 267 266
207 195 191 133 175 236 242 257 261 247 265 264 266 271 273 272 268 266 267 270 265 260 259 259 259 260 261 261 262 262 263 264 265 262 263 261 261 264 266 263 263 263 263 263 263 263 263 264 264
204 181 164 162 167 193 223 251 255 280 275 274 278 282 277 272 270 270 271 271 268 265 262 261 260 259 256 256 258 259 260 261 261 262 264 264 263 265 266 263 263 264 263 264 265 264 263 265 265
194 173 168 174 190 218 232 248 269 282 270 283 278 283 281 284 279 277 277 275 272 270 268 265 263 262 262 262 261 259 260 262 264 265 264 265 266 266 266 268 269 270 268 268 269 268 268 268 268
195 195 207 213 218 235 261 273 280 285 287 283 281 274 290 304 297 285 282 280 275 272 271 271 269 268 268 266 266 267 267 267 267 268 268 268 268 268 270 270 269 268 269 270 269 270 270 269 269
196 205 209 218 233 261 271 274 277 281 306 298 284 280 292 304 308 304 300 294 286 279 274 270 268 268 267 267 267 268 267 267 267 267 267 267 268 269 269 269 270 271 270 270 269 269 268 268 268
220 203 230 245 246 260 281 285 286 293 302 294 277 277 281 295 301 303 308 305 308 306 289 281 278 275 273 272 272 273 272 272 272 271 270 271 272 271 270 269 268 269 269 270 269 268 267 268 267
225 215 218 251 283 284 279 284 284 287 295 289 286 288 292 297 297 304 305 306 305 306 300 292 287 283 280 279 277 276 276 276 275 275 275 276 276 273 270 268 267 267 268 269 268 269 269 268 267
245 220 228 257 258 267 268 268 282 283 296 288 304 302 299 292 302 300 299 305 307 300 293 294 296 292 284 282 281 279 279 280 280 278 276 275 274 275 274 272 268 267 267 267 267 267 268 267 267
244 245 254 258 261 279 267 267 280 282 293 288 302 308 287 293 292 296 298 299 298 297 298 297 293 297 289 286 286 284 281 280 287 284 279 277 277 277 276 275 273 270 268 267 266 266 266 265 265
255 252 250 249 267 272 268 274 278 277 290 284 303 295 284 287 290 294 295 295 294 295 295 296 298 298 291 287 289 291 290 290 292 285 287 286 286 279 276 275 274 273 270 267 266 266 266 265 265
274 277 271 258 265 277 279 277 275 273 279 287 292 278 285 294 297 294 295 292 297 297 292 293 292 288 287 284 288 290 291 290 297 293 289 297 291 288 285 277 273 272 271 270 268 267 266 265 264
296 286 283 281 282 283 289 282 276 277 279 281 291 300 282 285 287 293 298 296 294 295 294 293 292 291 287 284 290 292 293 298 299 300 298 296 294 290 284 280 276 273 272 270 269 268 267 266 265
292 290 290 292 291 311 305 291 280 291 284 277 274 295 291 284 293 287 295 297 298 295 294 293 291 292 292 289 292 297 299 301 300 299 298 297 294 290 287 284 281 279 277 274 272 270 268 267 266
293 274 288 286 292 299 316 311 303 289 297 279 278 294 288 285 296 302 297 300 300 296 296 292 293 298 300 297 298 295 297 296 295 297 300 299 292 287 284 282 280 278 277 276 275 272 271 270 269
295 287 296 305 288 310 314 313 307 302 297 290 287 268 259 285 298 303 307 306 297 292 294 297 295 294 294 292 292 294 294 297 300 301 301 297 294 291 288 286 283 281 279 277 275 272 270 268 266
309 317 327 328 323 323 316 309 304 298 289 282 271 257 270 286 291 296 301 292 288 288 288 289 293 293 290 293 294 295 297 299 300 301 298 297 296 295 294 291 290 288 287 284 281 276 272 270 266
319 324 321 326 330 323 311 302 300 297 291 279 274 276 274 275 281 281 287 289 285 287 288 289 289 292 293 294 297 300 300 301 302 299 299 298 298 299 299 298 296 295 291 289 285 283 279 274 269
316 322 331 335 336 336 327 320 313 307 297 288 280 275 280 277 280 283 285 290 291 290 290 292 292 292 293 295 297 298 302 301 300 301 302 302 306 305 302 299 296 294 292 290 289 287 282 276 271
323 329 332 336 336 340 344 335 326 320 312 301 289 281 278 279 281 283 287 292 295 294 293 292 291 293 296 297 298 302 300 300 303 304 307 308 309 308 305 302 300 298 297 298 295 291 286 280 273
318 322 326 330 337 345 349 347 340 334 324 312 304 299 295 294 294 294 295 295 295 295 299 301 300 302 304 306 304 301 301 306 308 312 313 315 315 318 315 311 308 307 308 305 302 301 292 280 273
321 323 323 328 333 340 347 349 344 340 335 327 319 312 308 307 309 304 303 307 314 315 313 310 312 312 310 308 306 306 311 314 319 319 320 322 330 328 326 328 330 324 326 327 340 336 328 323 287
324 327 326 331 334 340 344 349 347 343 335 326 323 317 314 310 316 318 324 326 320 317 321 321 318 317 317 315 314 316 325 329 332 333 333 338 340 343 342 349 350 347 349 4 8 11 38 54 81
327 331 332 335 339 342 345 347 346 343 339 332 324 318 315 316 313 317 319 326 325 325 327 330 329 325 324 319 319 329 338 349 352 354 349 350 351 1 4 358 357 5 19 36 41 55 68 81 87
327 331 336 339 339 339 341 345 343 342 341 337 332 323 319 314 314 314 314 321 327 331 330 332 332 330 326 322 324 335 351 352 352 2 2 1 6 17 27 32 32 35 42 58 74 77 78 85 95
329 330 332 333 337 339 340 341 341 338 337 334 336 330 323 316 313 316 319 324 328 331 331 333 333 331 327 320 324 321 341 347 350 351 9 12 21 35 42 50 55 60 66 75 83 87 90 95 98
Height
10927 10928 10930 10930 10932 10932 10932 10933 10934 10939 10938 10938 10939 10941 10942 10943 10945 10947 10944 10941 10936 10937 10938 10935 10933 10936 10938 10938 10937 10936 10936 10935 10934 10933 10933 10932 10931 10931 10930 10930 10931 10929 10929 10930 10930 10928 10927 10931 10931
10923 10923 10926 10927 10929 10929 10928 10928 10931 10932 10932 10934 10935 10935 10936 10936 10938 10940 10941 10936 10930 10927 10928 10927 10925 10926 10928 10927 10927 10927 10926 10925 10925 10923 10923 10922 10923 10923 10921 10920 10920 10920 10918 10918 10917 10917 10917 10918 10919
10919 10918 10922 10926 10927 10926 10927 10926 10925 10927 10927 10929 10931 10930 10929 10931 10931 10932 10931 10929 10923 10923 10921 10921 10918 10918 10918 10918 10918 10917 10916 10915 10914 10912 10912 10911 10911 10911 10909 10909 10908 10907 10907 10906 10905 10904 10903 10905 10906
10910 10912 10916 10919 10922 10923 10923 10923 10922 10922 10923 10925 10925 10924 10924 10923 10923 10921 10920 10915 10914 10914 10915 10913 10911 10910 10909 10907 10907 10907 10906 10904 10903 10902 10900 10900 10897 10897 10896 10896 10895 10894 10893 10892 10890 10889 10888 10888 10891
10910 10910 10914 10916 10920 10916 10917 10916 10919 10921 10919 10918 10916 10916 10916 10917 10913 10909 10908 10906 10905 10903 10902 10901 10899 10898 10896 10896 10895 10894 10893 10892 10890 10888 10887 10885 10884 10881 10879 10880 10880 10880 10878 10876 10874 10873 10872 10871 10872
10908 10909 10910 10912 10920 10918 10915 10912 10912 10913 10912 10912 10912 10911 10909 10907 10903 10898 10896 10895 10892 10889 10889 10887 10885 10884 10882 10881 10880 10880 10879 10877 10875 10873 10871 10869 10868 10866 10865 10864 10863 10862 10861 10860 10858 10856 10856 10855 10854
10908 10909 10907 10910 10912 10911 10912 10911 10910 10909 10906 10906 10905 10903 10900 10898 10895 10889 10886 10886 10880 10877 10876 10874 10872 10869 10867 10867 10866 10865 10864 10861 10859 10857 10855 10852 10850 10849 10846 10845 10844 10842 10842 10841 10840 10840 10839 10838 10835
10909 10910 10909 10907 10909 10909 10908 10906 10905 10904 10903 10899 10897 10895 10893 10888 10886 10880 10877 10874 10871 10868 10865 10863 10860 10856 10856 10856 10854 10851 10849 10846 10844 10843 10839 10836 10835 10835 10830 10828 10827 10824 10822 10823 10822 10821 10819 10817 10815
10908 10908 10908 10909 10907 10907 10904 10901 10897 10894 10893 10891 10889 10886 10882 10879 10877 10873 10868 10863 10860 10856 10853 10851 10847 10844 10845 10843 10840 10836 10834 10830 10828 10828 10822 10820 10820 10818 10815 10813 10810 10806 10805 10803 10801 10801 10798 10795 10796
10907 10908 10908 10908 10907 10905 10899 10896 10893 10889 10886 10881 10879 10877 10874 10870 10866 10860 10857 10855 10850 10846 10843 10838 10835 10833 10830 10828 10825 10822 10819 10815 10814 10810 10802 10801 10802 10800 10797 10794 10790 10785 10784 10781 10781 10778 10776 10778 10776
10906 10906 10905 10904 10902 10899 10896 10891 10887 10881 10876 10872 10869 10867 10864 10860 10856 10851 10846 10843 10837 10834 10833 10830 10826 10822 10817 10814 10811 10807 10801 10798 10796 10791 10783 10779 10781 10783 10778 10773 10770 10766 10765 10760 10758 10756 10754 10752 10754
10902 10900 10898 10898 10895 10890 10886 10883 10875 10870 10865 10862 10860 10857 10852 10847 10843 10840 10836 10831 10824 10820 10817 10814 10813 10807 10802 10800 10798 10795 10791 10787 10783 10775 10770 10764 10760 10755 10753 10752 10749 10746 10743 10738 10735 10731 10729 10730 10731
10897 10898 10894 10891 10885 10882 10875 10871 10865 10862 10857 10852 10849 10845 10841 10837 10831 10827 10824 10821 10816 10811 10803 10803 10798 10793 10788 10786 10782 10779 10775 10771 10765 10759 10755 10749 10741 10733 10728 10724 10725 10724 10722 10716 10712 10710 10706 10706 10708
10895 10892 10891 10885 10879 10875 10868 10865 10858 10850 10847 10843 10840 10835 10829 10824 10818 10814 10810 10807 10803 10799 10792 10788 10785 10780 10775 10771 10767 10763 10758 10752 10747 10740 10734 10730 10723 10714 10706 10698 10693 10697 10693 10689 10685 10682 10683 10680 10681
10889 10886 10886 10880 10873 10870 10863 10858 10850 10844 10841 10836 10830 10824 10817 10809 10805 10801 10794 10790 10787 10784 10778 10772 10768 10764 10759 10754 10748 10745 10739 10735 10728 10720 10715 10709 10700 10692 10683 10674 10664 10661 10664 10661 10658 10655 10654 10651 10650
10886 10881 10877 10874 10865 10862 10855 10851 10840 10835 10832 10826 10819 10811 10803 10797 10792 10788 10785 10779 10772 10768 10764 10759 10754 10747 10741 10737 10732 10730 10720 10713 10703 10698 10692 10683 10672 10663 10653 10644 10638 10631 10629 10628 10627 10626 10624 10620 10623
10876 10870 10866 10860 10856 10854 10851 10841 10834 10828 10824 10820 10811 10800 10791 10783 10779 10777 10771 10765 10758 10752 10748 10742 10736 10729 10725 10720 10714 10708 10700 10689 10680 10672 10663 10653 10640 10629 10621 10613 10607 10600 10596 10593 10591 10590 10591 10587 10588
10868 10862 10855 10849 10843 10841 10840 10833 10828 10822 10818 10815 10807 10795 10779 10769 10764 10762 10758 10751 10742 10735 10732 10726 10717 10708 10704 10698 10691 10683 10675 10668 10658 10646 10637 10627 10612 10599 10591 10583 10575 10568 10563 10560 10557 10555 10555 10555 10555
10862 10854 10849 10844 10843 10837 10832 10825 10819 10816 10812 10807 10801 10783 10766 10754 10749 10747 10744 10737 10727 10716 10710 10706 10698 10689 10681 10676 10671 10664 10656 10647 10637 10626 10611 10598 10586 10576 10567 10559 10551 10543 10536 10531 10528 10524 10521 10521 10522
10855 10848 10847 10841 10840 10833 10824 10814 10809 10807 10802 10797 10791 10774 10756 10747 10742 10729 10725 10721 10715 10707 10697 10690 10682 10676 10668 10659 10650 10642 10633 10622 10610 10599 10584 10573 10560 10551 10543 10535 10526 10518 10513 10507 10502 10498 10496 10494 10497
10848 10842 10837 10834 10830 10823 10813 10806 10796 10791 10787 10783 10777 10766 10751 10742 10733 10727 10717 10711 10703 10694 10685 10673 10666 10657 10648 10641 10632 10623 10614 10602 10590 10578 10565 10552 10543 10534 10525 10515 10507 10499 10492 10486 10480 10475 10473 10473 10472
10841 10840 10834 10828 10818 10810 10802 10793 10784 10775 10770 10765 10758 10750 10747 10735 10723 10718 10709 10699 10691 10683 10671 10659 10649 10638 10627 10620 10610 10599 10589 10578 10567 10558 10548 10539 10530 10520 10510 10499 10491 10483 10474 10467 10459 10455 10452 10451 10449
10835 10829 10827 10820 10809 10798 10784 10776 10768 10760 10754 10749 10743 10738 10728 10721 10714 10706 10695 10687 10677 10667 10655 10644 10632 10619 10611 10601 10592 10583 10570 10562 10553 10544 10535 10527 10518 10508 10497 10487 10477 10468 10459 10452 10444 10438 10434 10432 10431
10829 10820 10816 10811 10805 10793 10781 10769 10759 10751 10743 10736 10730 10726 10717 10712 10703 10695 10686 10677 10668 10658 10643 10631 10618 10607 10595 10585 10577 10568 10560 10551 10542 10535 10527 10518 10509 10498 10487 10476 10466 10456 10448 10442 10435 10429 10423 10420 10419
10827 10820 10812 10802 10794 10784 10774 10765 10754 10746 10737 10729 10723 10717 10711 10701 10693 10685 10675 10666 10655 10644 10630 10616 10604 10593 10581 10571 10565 10559 10548 10541 10534 10527 10519 10511 10502 10490 10478 10467 10457 10449 10442 10436 10429 10423 10418 10415 10413
10823 10815 10808 10800 10791 10782 10770 10760 10750 10739 10730 10722 10715 10708 10700 10690 10682 10672 10663 10652 10640 10628 10619 10604 10590 10580 10571 10563 10555 10546 10540 10535 10529 10522 10515 10507 10496 10484 10472 10461 10452 10445 10439 10432 10426 10420 10416 10412 10411
10814 10808 10799 10792 10782 10772 10762 10754 10743 10736 10728 10718 10709 10701 10692 10682 10671 10660 10650 10641 10630 10617 10605 10591 10582 10571 10561 10552 10545 10540 10536 10531 10526 10520 10513 10504 10493 10481 10468 10459 10451 10445 10439 10432 10427 10422 10416 10413 10411
10807 10798 10789 10778 10768 10760 10752 10743 10734 10726 10718 10710 10702 10692 10683 10672 10662 10651 10638 10632 10621 10605 10593 10580 10570 10560 10552 10545 10541 10537 10534 10530 10526 10519 10512 10504 10494 10481 10469 10461 10454 10447 10440 10434 10430 10426 10420 10417 10415
10795 10790 10780 10770 10760 10752 10743 10734 10723 10714 10706 10698 10690 10681 10671 10660 10651 10643 10632 10623 10612 10598 10585 10574 10563 10555 10548 10542 10539 10535 10533 10530 10525 10519 10512 10505 10497 10486 10476 10465 10456 10450 10444 10438 10435 10430 10426 10423 10421
10789 10780 10774 10765 10755 10743 10732 10723 10714 10705 10696 10687 10681 10671 10661 10649 10638 10630 10617 10605 10598 10590 10578 10569 10560 10551 10545 10540 10537 10535 10532 10529 10525 10521 10514 10508 10501 10492 10484 10474 10465 10457 10451 10446 10440 10436 10434 10431 10431